TimeEST,TemperatureF,Dew PointF,Humidity,Sea Level PressureIn,VisibilityMPH,Wind Direction,Wind SpeedMPH,Gust SpeedMPH,PrecipitationIn,Events,Conditions,WindDirDegrees,DateUTC
12:53 AM,34.0,18.0,52,29.68,10.0,WNW,18.4,34.5,N/A,,Clear,290,2012-12-23 05:53:00
1:53 AM,34.0,19.0,54,29.73,10.0,WNW,21.9,34.5,N/A,,Clear,290,2012-12-23 06:53:00
2:53 AM,34.0,21.0,59,29.75,10.0,West,23.0,29.9,N/A,,Clear,280,2012-12-23 07:53:00
3:53 AM,35.1,21.0,57,29.77,10.0,West,19.6,31.1,N/A,,Clear,280,2012-12-23 08:53:00
4:53 AM,35.1,21.9,59,29.79,10.0,West,18.4,36.8,N/A,,Partly Cloudy,280,2012-12-23 09:53:00
5:53 AM,36.0,21.9,57,29.82,10.0,West,18.4,28.8,N/A,,Partly Cloudy,280,2012-12-23 10:53:00
7:53 AM,37.0,21.9,54,29.86,10.0,WNW,18.4,28.8,N/A,,Scattered Clouds,290,2012-12-23 12:53:00
8:53 AM,37.9,21.9,53,29.87,10.0,WNW,17.3,29.9,N/A,,Partly Cloudy,290,2012-12-23 13:53:00
9:53 AM,39.0,21.9,50,29.88,10.0,West,24.2,35.7,N/A,,Clear,280,2012-12-23 14:53:00
10:53 AM,41.0,21.9,47,29.88,10.0,West,23.0,32.2,N/A,,Partly Cloudy,280,2012-12-23 15:53:00
11:53 AM,41.0,24.1,51,29.86,10.0,West,21.9,29.9,N/A,,Clear,280,2012-12-23 16:53:00
1:53 PM,39.9,27.0,60,29.84,10.0,West,16.1,20.7,N/A,,Mostly Cloudy,270,2012-12-23 18:53:00
2:53 PM,39.0,30.0,70,29.83,10.0,West,16.1,-,N/A,,Overcast,260,2012-12-23 19:53:00
3:02 PM,39.2,30.2,70,29.83,10.0,West,17.3,23.0,N/A,,Overcast,260,2012-12-23 20:02:00
3:44 PM,39.2,30.2,70,29.84,10.0,WSW,13.8,-,N/A,,Overcast,250,2012-12-23 20:44:00
3:53 PM,39.0,30.0,70,29.83,10.0,WSW,13.8,-,N/A,,Overcast,250,2012-12-23 20:53:00
4:53 PM,39.9,28.9,65,29.84,10.0,WSW,18.4,-,N/A,,Overcast,240,2012-12-23 21:53:00
5:53 PM,39.9,28.9,65,29.85,10.0,West,12.7,-,N/A,,Mostly Cloudy,270,2012-12-23 22:53:00
6:53 PM,41.0,30.0,65,29.86,10.0,West,16.1,-,N/A,,Mostly Cloudy,270,2012-12-23 23:53:00
7:53 PM,41.0,30.9,67,29.87,10.0,WNW,11.5,25.3,N/A,,Mostly Cloudy,290,2012-12-24 00:53:00
8:53 PM,39.9,30.9,70,29.88,10.0,West,11.5,-,N/A,,Mostly Cloudy,280,2012-12-24 01:53:00
9:53 PM,39.0,27.0,62,29.89,10.0,West,10.4,-,N/A,,Clear,280,2012-12-24 02:53:00
10:53 PM,39.0,28.0,65,29.90,10.0,West,11.5,-,N/A,,Mostly Cloudy,280,2012-12-24 03:53:00
11:53 PM,37.0,21.9,54,29.91,10.0,West,11.5,-,N/A,,Clear,280,2012-12-24 04:53:00